CW9792 Weather Reports


Display with metric or nautical units.
time (UTC)temp
F
wind
direction
speed
MPH
gust
MPH
rain 1hr
in
rain 24hr
in
rain mn
in
humidity
%
barometer
mb
20210613114605 73 227 0.0 0.0 0.00 0.00 0.00 63 1011.2
20210613114037 73 229 0.0 0.0 0.00 0.00 0.00 63 1011.2
20210613113529 73 231 0.0 0.0 0.00 0.00 0.00 64 1011.1
20210613113054 72 224 0.0 0.0 0.00 0.00 0.00 66 1011.1
20210613112528 72 226 0.0 0.0 0.00 0.00 0.00 68 1011.1
20210613112035 71 222 0.0 0.0 0.00 0.00 0.00 69 1011.1
20210613111558 71 221 0.0 0.0 0.00 0.00 0.00 69 1011.0
20210613111040 71 221 0.0 0.0 0.00 0.00 0.00 69 1010.9
20210613110530 70 217 0.0 0.0 0.00 0.00 0.00 69 1010.8
20210613110120 70 217 0.0 0.0 0.00 0.00 0.00 69 1010.7
20210613105527 70 217 0.0 0.0 0.00 0.00 0.00 69 1010.7
20210613105043 70 217 0.0 0.0 0.00 0.00 0.00 68 1010.6
20210613104527 70 225 0.0 0.0 0.00 0.00 0.00 68 1010.5
20210613104026 70 225 0.0 0.0 0.00 0.00 0.00 69 1010.4
20210613103526 70 190 0.0 0.0 0.00 0.00 0.00 68 1010.2
20210613103208 70 210 0.0 0.0 0.00 0.00 0.00 68 1010.2
20210613102604 70 237 0.0 0.0 0.00 0.00 0.00 68 1010.2
20210613102025 70 198 0.0 0.0 0.00 0.00 0.00 68 1010.2
20210613101554 70 190 0.0 0.0 0.00 0.00 0.00 68 1010.2
20210613101024 70 189 0.0 0.0 0.00 0.00 0.00 68 1010.1
20210613100523 70 250 0.0 0.0 0.00 0.00 0.00 67 1010.3
20210613100026 71 250 0.0 0.0 0.00 0.00 0.00 66 1010.5
20210613095536 71 250 0.0 0.0 0.00 0.00 0.00 65 1010.5
20210613095022 71 250 0.0 0.0 0.00 0.00 0.00 65 1010.4
20210613094537 71 257 0.0 0.0 0.00 0.00 0.00 65 1010.4
20210613094021 71 258 0.0 0.0 0.00 0.00 0.00 66 1010.4
20210613093538 71 250 0.0 0.0 0.00 0.00 0.00 65 1010.2
20210613093036 71 30 0.0 0.0 0.00 0.00 0.00 66 1010.2
20210613092520 71 30 0.0 0.0 0.00 0.00 0.00 65 1010.2
20210613092019 72 30 0.0 0.0 0.00 0.00 0.00 65 1010.1
20210613091522 72 30 0.0 0.0 0.00 0.00 0.00 65 1010.0
20210613091017 72 30 0.0 0.0 0.00 0.00 0.00 64 1010.1
20210613090519 72 30 0.0 0.0 0.00 0.00 0.00 63 1010.0
20210613085519 72 30 0.0 0.0 0.00 0.00 0.00 63 1010.1
20210613085016 72 30 0.0 0.0 0.00 0.00 0.00 63 1010.0
20210613084559 73 30 0.0 0.0 0.00 0.00 0.00 63 1010.0
20210613084016 73 30 0.0 0.0 0.00 0.00 0.00 62 1010.1
20210613083514 73 30 0.0 0.0 0.00 0.00 0.00 61 1010.1
20210613083050 73 288 0.0 0.0 0.00 0.00 0.00 61 1010.1
20210613082519 73 277 0.0 0.0 0.00 0.00 0.00 61 1010.1
20210613082011 73 277 0.0 0.0 0.00 0.00 0.00 60 1010.1
20210613081516 74 277 0.0 0.0 0.00 0.00 0.00 60 1010.2
20210613081026 74 277 0.0 0.0 0.00 0.00 0.00 60 1010.3
20210613080510 74 277 0.0 0.0 0.00 0.00 0.00 60 1010.3
20210613080016 74 294 0.0 0.0 0.00 0.00 0.00 60 1010.4
20210613075509 74 332 0.0 0.0 0.00 0.00 0.00 60 1010.6
20210613075010 74 355 0.0 0.0 0.00 0.00 0.00 61 1010.7
20210613074548 74 355 0.0 0.0 0.00 0.00 0.00 61 1011.0
20210613074009 74 336 0.0 0.0 0.00 0.00 0.00 62 1011.0
20210613073513 74 288 0.0 0.0 0.00 0.00 0.00 61 1010.9
20210613073027 74 288 0.0 0.0 0.00 0.00 0.00 61 1010.9
20210613072508 74 290 0.0 0.0 0.00 0.00 0.00 62 1011.0
20210613072009 74 282 0.0 0.0 0.00 0.00 0.00 62 1011.2
20210613071510 74 316 0.0 0.0 0.00 0.00 0.00 63 1011.2
20210613071019 74 294 0.0 0.0 0.00 0.00 0.00 63 1011.4
20210613070508 74 332 0.0 0.0 0.00 0.00 0.00 63 1011.6
20210613070033 74 343 0.0 0.0 0.00 0.00 0.00 62 1011.5
20210613065504 75 279 0.0 0.0 0.00 0.00 0.00 60 1011.1
20210613065004 76 259 0.0 0.0 0.00 0.00 0.00 58 1010.9
20210613064516 75 233 0.0 0.0 0.00 0.00 0.00 58 1010.8
20210613064002 75 231 0.0 0.0 0.00 0.00 0.00 58 1010.7
20210613063509 75 243 0.0 0.0 0.00 0.00 0.00 58 1010.6
20210613063010 75 222 0.0 0.0 0.00 0.00 0.00 59 1010.4
20210613062501 75 222 0.0 0.0 0.00 0.00 0.00 59 1010.2
20210613062010 75 217 0.0 0.0 0.00 0.00 0.00 59 1010.0
20210613061501 75 219 0.0 0.0 0.00 0.00 0.00 59 1010.2
20210613061007 75 203 0.0 0.0 0.00 0.00 0.00 60 1010.1
20210613060503 74 208 0.0 0.0 0.00 0.00 0.00 61 1010.3
20210613060200 75 201 0.0 0.0 0.00 0.00 0.00 61 1010.3
20210613055600 75 202 0.0 0.0 0.00 0.00 0.00 61 1010.2
20210613055118 75 187 0.0 0.0 0.00 0.00 0.00 61 1010.1
20210613054648 75 205 0.0 0.0 0.00 0.00 0.00 61 1010.1
20210613054059 75 206 0.0 0.0 0.00 0.00 0.00 61 1010.1
20210613053600 74 214 0.0 0.0 0.00 0.00 0.00 61 1010.0
20210613053218 74 191 0.0 0.0 0.00 0.00 0.00 61 1009.9
20210613052557 75 184 0.0 0.0 0.00 0.00 0.00 61 1010.0
20210613052107 75 192 0.0 0.0 0.00 0.00 0.00 60 1010.0
20210613051621 75 183 0.0 0.0 0.00 0.00 0.00 60 1010.0
20210613051108 75 189 0.0 0.0 0.00 0.00 0.00 60 1010.1
20210613050606 75 191 0.0 0.0 0.00 0.00 0.00 60 1010.2
20210613050151 75 205 0.0 0.0 0.00 0.00 0.00 60 1010.3
20210613045609 75 200 0.0 0.0 0.00 0.00 0.00 60 1010.3
20210613045053 76 200 0.0 0.0 0.00 0.00 0.00 59 1010.4
20210613044739 76 206 0.0 0.0 0.00 0.00 0.00 59 1010.4
20210613044101 76 194 0.0 0.0 0.00 0.00 0.00 59 1010.4
20210613043600 76 175 0.0 0.0 0.00 0.00 0.00 59 1010.3
20210613043214 76 174 0.0 0.0 0.00 0.00 0.00 59 1010.2
20210613042614 76 171 0.0 0.0 0.00 0.00 0.00 59 1010.3
20210613042051 76 171 0.0 0.0 0.00 0.00 0.00 61 1010.3
20210613041758 76 190 0.0 0.0 0.00 0.00 0.00 62 1010.4
20210613041050 76 187 0.0 0.0 0.00 0.00 0.00 62 1010.4
20210613040625 76 184 0.0 0.0 0.00 0.00 0.00 62 1010.7
20210613040122 76 184 0.0 0.0 0.00 0.00 0.00 62 1010.6
20210613035547 76 184 0.0 0.0 0.00 0.00 0.00 62 1010.7
20210613035050 76 182 0.0 0.0 0.00 0.00 0.00 62 1010.8
20210613034636 77 185 0.0 0.0 0.00 0.00 0.00 61 1010.8
20210613034053 77 188 0.0 0.0 0.00 0.00 0.00 61 1010.8
20210613033547 77 184 0.0 0.0 0.00 0.00 0.00 61 1010.7
20210613033152 77 198 0.0 0.0 0.00 0.00 0.00 61 1010.7
20210613032546 77 211 0.0 0.0 0.00 0.00 0.00 61 1010.9
20210613032045 78 181 0.0 0.0 0.00 0.00 0.00 60 1010.9
20210613031634 78 212 0.0 0.0 0.00 0.00 0.00 61 1010.9
20210613031059 77 185 0.0 0.0 0.00 0.00 0.00 61 1010.8
20210613030555 77 138 0.0 0.0 0.00 0.00 0.00 61 1010.7
20210613030141 77 135 0.0 0.0 0.00 0.00 0.00 62 1010.3
20210613025544 77 135 0.0 0.0 0.00 0.00 0.00 63 1010.4
20210613025043 77 135 0.0 0.0 0.00 0.00 0.00 64 1010.2
20210613024623 76 132 0.0 0.0 0.00 0.00 0.00 66 1010.2
20210613024106 77 149 0.0 0.0 0.00 0.00 0.00 65 1010.3
20210613023543 77 157 0.0 0.0 0.00 0.00 0.00 64 1010.2
20210613023119 77 157 0.0 0.0 0.00 0.00 0.00 65 1010.1
20210613022558 77 157 0.0 0.0 0.00 0.00 0.00 64 1010.0
20210613022045 78 157 0.0 0.0 0.00 0.00 0.00 64 1010.1
20210613021750 78 157 0.0 0.0 0.00 0.00 0.00 64 1010.1
20210613021042 78 157 0.0 0.0 0.00 0.00 0.00 65 1010.1
20210613020545 78 156 0.0 0.0 0.00 0.00 0.00 64 1010.0
20210613020102 78 157 0.0 0.0 0.00 0.00 0.00 64 1010.2
20210613015603 79 355 0.0 0.0 0.00 0.00 0.00 64 1010.1
20210613015042 78 355 0.0 0.0 0.00 0.00 0.00 64 1010.1
20210613014647 79 355 0.0 0.0 0.00 0.00 0.00 64 1009.9
20210613014055 79 355 0.0 0.0 0.00 0.00 0.00 64 1009.8
20210613013541 79 355 0.0 0.0 0.00 0.00 0.00 63 1009.5
20210613013246 79 355 0.0 0.0 0.00 0.00 0.00 63 1009.6
20210613012540 80 355 0.0 0.0 0.00 0.00 0.00 63 1009.5
20210613012053 80 355 0.0 0.0 0.00 0.00 0.00 63 1009.4
20210613011614 80 355 0.0 0.0 0.00 0.00 0.00 61 1009.3
20210613011053 81 355 0.0 0.0 0.00 0.00 0.00 62 1009.1
20210613010552 82 355 0.0 0.0 0.00 0.00 0.00 57 1009.1
20210613010105 83 355 0.0 0.0 0.00 0.00 0.00 54 1008.9
20210613005546 82 355 0.0 0.0 0.00 0.00 0.00 55 1008.8
20210613005103 83 355 0.0 0.0 0.00 0.00 0.00 54 1008.7
20210613004704 84 355 0.0 0.0 0.00 0.00 0.00 54 1008.6
20210613003541 84 355 0.0 0.0 0.00 0.00 0.00 58 1008.6
20210613003134 85 355 0.0 0.0 0.00 0.00 0.00 56 1008.5
20210613002540 86 355 0.0 0.0 0.00 0.00 0.00 57 1008.4
20210613002047 87 355 0.0 0.0 0.00 0.00 0.00 56 1008.4
20210613001607 86 355 0.0 0.0 0.00 0.00 0.00 50 1008.4
20210613001038 87 355 0.0 0.0 0.00 0.00 0.00 53 1008.4
20210613000545 87 355 0.0 0.0 0.00 0.00 0.00 51 1008.4
20210613000128 87 355 0.0 0.0 0.00 0.00 0.00 53 1008.5
20210612235538 88 355 0.0 0.0 0.00 0.00 0.00 50 1008.5
20210612235042 89 355 0.0 0.0 0.00 0.00 0.00 48 1008.4
20210612234613 89 355 0.0 0.0 0.00 0.00 0.00 48 1008.6
20210612234035 89 355 0.0 0.0 0.00 0.00 0.00 45 1008.6
20210612233535 89 355 0.0 0.0 0.00 0.00 0.00 45 1008.6
20210612233125 89 355 0.0 0.0 0.00 0.00 0.00 44 1008.7
20210612232546 89 355 0.0 0.0 0.00 0.00 0.00 43 1008.6
20210612232052 89 355 0.0 0.0 0.00 0.00 0.00 43 1008.6
20210612231551 89 346 0.0 0.0 0.00 0.00 0.00 43 1008.6
20210612231037 89 348 0.0 0.0 0.00 0.00 0.00 42 1008.6
20210612230542 89 348 0.0 0.0 0.00 0.00 0.00 42 1008.7
20210612230118 89 355 0.0 0.0 0.00 0.00 0.00 42 1008.8
20210612225534 89 360 0.0 0.0 0.00 0.00 0.00 42 1008.7
20210612225035 90 355 0.0 0.0 0.00 0.00 0.00 42 1008.7
20210612224611 90 5 0.0 0.0 0.00 0.00 0.00 41 1008.7
20210612224033 90 360 0.0 0.0 0.00 0.00 0.00 42 1008.8
20210612223540 90 350 0.0 0.0 0.00 0.00 0.00 42 1008.8
20210612223056 90 348 0.0 0.0 0.00 0.00 0.00 41 1008.8
20210612222537 90 348 0.0 0.0 0.00 0.00 0.00 43 1008.8
20210612222033 90 290 0.0 0.0 0.00 0.00 0.00 40 1008.7
20210612221621 90 355 0.0 0.0 0.00 0.00 0.00 43 1008.6
20210612221040 90 351 0.0 0.0 0.00 0.00 0.00 42 1008.7
20210612220532 90 319 0.0 0.0 0.00 0.00 0.00 41 1008.6
20210612220118 90 345 0.0 0.0 0.00 0.00 0.00 44 1008.6
20210612215532 90 5 0.0 0.0 0.00 0.00 0.00 40 1008.6
20210612215039 90 5 0.0 0.0 0.00 0.00 0.00 42 1008.5
20210612214558 90 302 0.0 0.0 0.00 0.00 0.00 41 1008.5
20210612214052 90 360 0.0 0.0 0.00 0.00 0.00 41 1008.5
20210612213542 90 355 0.0 0.0 0.00 0.00 0.00 42 1008.5
20210612213104 90 323 0.0 0.0 0.00 0.00 0.00 42 1008.5
20210612212530 90 323 0.0 0.0 0.00 0.00 0.00 44 1008.5
20210612212037 90 339 0.0 0.0 0.00 0.00 0.00 42 1008.6
20210612211548 90 347 0.0 0.0 0.00 0.00 0.00 40 1008.6
20210612211036 90 360 0.0 0.0 0.00 0.00 0.00 41 1008.7
20210612210529 90 351 0.0 0.0 0.00 0.00 0.00 41 1008.7
20210612210133 90 355 0.0 0.0 0.00 0.00 0.00 40 1008.7
20210612205528 90 347 0.0 0.0 0.00 0.00 0.00 41 1008.8
20210612205029 89 344 0.0 0.0 0.00 0.00 0.00 41 1008.9
20210612204551 89 360 0.0 0.0 0.00 0.00 0.00 44 1008.8
20210612204033 91 292 0.0 0.0 0.00 0.00 0.00 39 1008.9
20210612203536 90 13 0.0 0.0 0.00 0.00 0.00 43 1009.1
20210612203109 89 19 0.0 0.0 0.00 0.00 0.00 43 1009.1
20210612202526 89 11 0.0 0.0 0.00 0.00 0.00 43 1009.3
20210612202026 89 15 0.0 0.0 0.00 0.00 0.00 42 1009.3
20210612201532 90 9 0.0 0.0 0.00 0.00 0.00 40 1009.3
20210612201033 90 17 0.0 0.0 0.00 0.00 0.00 39 1009.4
20210612200532 90 10 0.0 0.0 0.00 0.00 0.00 43 1009.4
20210612200113 89 295 0.0 0.0 0.00 0.00 0.00 40 1009.4
20210612195525 90 335 0.0 0.0 0.00 0.00 0.00 36 1009.4
20210612195024 90 355 0.0 0.0 0.00 0.00 0.00 41 1009.5
20210612194559 89 355 0.0 0.0 0.00 0.00 0.00 40 1009.6
20210612194031 89 360 0.0 0.0 0.00 0.00 0.00 41 1009.7
20210612193523 89 5 0.0 0.0 0.00 0.00 0.00 41 1009.8
20210612193047 90 22 0.0 0.0 0.00 0.00 0.00 40 1009.8
20210612192522 90 265 0.0 0.0 0.00 0.00 0.00 41 1009.8
20210612192030 90 360 0.0 0.0 0.00 0.00 0.00 46 1009.8
20210612191527 89 294 0.0 0.0 0.00 0.00 0.00 40 1009.9
20210612191030 89 227 0.0 0.0 0.00 0.00 0.00 43 1009.9
20210612190535 90 63 0.0 0.0 0.00 0.00 0.00 39 1009.9
20210612190040 89 5 0.0 0.0 0.00 0.00 0.00 41 1010.0
20210612185523 89 351 0.0 0.0 0.00 0.00 0.00 41 1010.0
20210612185028 90 313 0.0 0.0 0.00 0.00 0.00 38 1010.1
20210612184538 89 342 0.0 0.0 0.00 0.00 0.00 41 1010.1
20210612184022 90 350 0.0 0.0 0.00 0.00 0.00 40 1010.2
20210612183520 90 123 0.0 0.0 0.00 0.00 0.00 40 1010.3
20210612183102 91 17 0.0 0.0 0.00 0.00 0.00 38 1010.3
20210612182530 89 15 0.0 0.0 0.00 0.00 0.00 39 1010.3
20210612182020 89 355 0.0 0.0 0.00 0.00 0.00 41 1010.4
20210612181529 89 26 0.0 0.0 0.00 0.00 0.00 42 1010.5
20210612181047 88 16 0.0 0.0 0.00 0.00 0.00 42 1010.4
20210612180520 90 360 0.0 0.0 0.00 0.00 0.00 39 1010.3
20210612180023 91 34 0.0 0.0 0.00 0.00 0.00 42 1010.4
20210612175519 91 9 0.0 0.0 0.00 0.00 0.00 41 1010.3
20210612175018 90 73 0.0 0.0 0.00 0.00 0.00 41 1010.2
20210612174531 90 69 0.0 0.0 0.00 0.00 0.00 44 1010.2
20210612174017 90 55 0.0 0.0 0.00 0.00 0.00 44 1010.2
20210612173517 88 341 0.0 0.0 0.00 0.00 0.00 41 1010.2
20210612173036 90 32 0.0 0.0 0.00 0.00 0.00 40 1010.3
20210612172515 89 71 0.0 0.0 0.00 0.00 0.00 40 1010.3
20210612172021 88 142 0.0 0.0 0.00 0.00 0.00 43 1010.3
20210612171532 89 16 0.0 0.0 0.00 0.00 0.00 42 1010.4
20210612171015 89 35 0.0 0.0 0.00 0.00 0.00 44 1010.4
20210612170514 88 38 0.0 0.0 0.00 0.00 0.00 41 1010.4
20210612170018 88 12 0.0 0.0 0.00 0.00 0.00 43 1010.5
20210612165514 89 34 0.0 0.0 0.00 0.00 0.00 45 1010.6
20210612165013 88 70 0.0 0.0 0.00 0.00 0.00 44 1010.5
20210612164549 87 66 0.0 0.0 0.00 0.00 0.00 46 1010.5
20210612164022 88 84 0.0 0.0 0.00 0.00 0.00 45 1010.5
20210612163536 88 114 0.0 0.0 0.00 0.00 0.00 45 1010.5
20210612163013 88 49 0.0 0.0 0.00 0.00 0.00 51 1010.5
20210612162511 86 29 0.0 0.0 0.00 0.00 0.00 49 1010.5
20210612162011 87 33 0.0 0.0 0.00 0.00 0.00 50 1010.5
20210612161511 88 28 0.0 0.0 0.00 0.00 0.00 50 1010.6
20210612161012 88 64 0.0 0.0 0.00 0.00 0.00 51 1010.6
20210612160516 86 52 0.0 0.0 0.00 0.00 0.00 53 1010.7
20210612160018 86 56 0.0 0.0 0.00 0.00 0.00 53 1010.7
20210612155510 87 76 0.0 0.0 0.00 0.00 0.00 53 1010.7
20210612155010 87 42 0.0 0.0 0.00 0.00 0.00 52 1010.7
20210612154516 88 38 0.0 0.0 0.00 0.00 0.00 53 1010.7
20210612154028 87 38 0.0 0.0 0.00 0.00 0.00 55 1010.7
20210612153507 86 38 0.0 0.0 0.00 0.00 0.00 57 1010.6
20210612153012 85 37 0.0 0.0 0.00 0.00 0.00 61 1010.7
20210612152511 85 35 0.0 0.0 0.00 0.00 0.00 58 1010.6
20210612152005 85 36 0.0 0.0 0.00 0.00 0.00 60 1010.7
20210612151528 84 40 0.0 0.0 0.00 0.00 0.00 59 1010.6
20210612151003 83 33 0.0 0.0 0.00 0.00 0.00 62 1010.6
20210612150511 83 33 0.0 0.0 0.00 0.00 0.00 62 1010.6
20210612150036 83 28 0.0 0.0 0.00 0.00 0.00 61 1010.6
20210612145507 83 46 0.0 0.0 0.00 0.00 0.00 63 1010.5
20210612145005 83 47 0.0 0.0 0.00 0.00 0.00 64 1010.5
20210612144800 83 47 0.0 0.0 0.00 0.00 0.00 63 1010.4
20210612144059 82 47 0.0 0.0 0.00 0.00 0.00 63 1010.4
20210612143559 82 29 0.0 0.0 0.00 0.00 0.00 65 1010.4
20210612143232 82 33 0.0 0.0 0.00 0.00 0.00 64 1010.4
20210612142604 82 26 0.0 0.0 0.00 0.00 0.00 66 1010.4
20210612142056 81 32 0.0 0.0 0.00 0.00 0.00 66 1010.3
20210612141729 81 43 0.0 0.0 0.00 0.00 0.00 65 1010.2
20210612141110 81 70 0.0 0.0 0.00 0.00 0.00 65 1010.2
20210612140556 81 48 0.0 0.0 0.00 0.00 0.00 66 1010.3
20210612140126 80 29 0.0 0.0 0.00 0.00 0.00 66 1010.2
20210612135601 81 65 0.0 0.0 0.00 0.00 0.00 66 1010.2
20210612135100 81 19 0.0 0.0 0.00 0.00 0.00 68 1010.2
20210612134654 80 46 0.0 0.0 0.00 0.00 0.00 68 1010.3
20210612134104 79 32 0.0 0.0 0.00 0.00 0.00 69 1010.2
20210612133552 78 49 0.0 0.0 0.00 0.00 0.00 70 1010.2
20210612133140 78 24 0.0 0.0 0.00 0.00 0.00 71 1010.2
20210612132551 78 23 0.0 0.0 0.00 0.00 0.00 71 1010.2
20210612132047 77 17 0.0 0.0 0.00 0.00 0.00 71 1010.2
20210612131650 77 15 0.0 0.0 0.00 0.00 0.00 72 1010.2
20210612131045 76 17 0.0 0.0 0.00 0.00 0.00 72 1010.3
20210612130607 76 15 0.0 0.0 0.00 0.00 0.00 73 1010.3
20210612130123 76 17 0.0 0.0 0.00 0.00 0.00 72 1010.3
20210612125543 76 355 0.0 0.0 0.00 0.00 0.00 72 1010.2
20210612125044 76 5 0.0 0.0 0.00 0.00 0.00 72 1010.3
20210612124617 75 360 0.0 0.0 0.00 0.00 0.00 73 1010.3
20210612124042 75 340 0.0 0.0 0.00 0.00 0.00 74 1010.3
20210612123543 76 204 0.0 0.0 0.00 0.00 0.00 73 1010.2
20210612123205 76 204 0.0 0.0 0.00 0.00 0.00 73 1010.1
20210612122550 75 204 0.0 0.0 0.00 0.00 0.00 75 1010.2
20210612122040 74 204 0.0 0.0 0.00 0.00 0.00 76 1010.3
20210612121614 73 204 0.0 0.0 0.00 0.00 0.00 77 1010.3
20210612121041 73 204 0.0 0.0 0.00 0.00 0.00 78 1010.2
20210612120538 73 204 0.0 0.0 0.00 0.00 0.00 79 1010.2
20210612120125 71 204 0.0 0.0 0.00 0.00 0.00 79 1010.2
20210612115537 71 204 0.0 0.0 0.00 0.00 0.00 80 1010.2
20210612115040 70 204 0.0 0.0 0.00 0.00 0.00 80 1010.2